Wind_Speed
12 12 12 12 12 12 11 10 11 11 11 12 11 10 10 10 10 10 10 10 10 10 10 10 10 10 10 11 11 12 13 13 13 13 12 10 8 8 9 10 12 15 13 15 16 15 16 14 13 12 10 7 6 4 5 11 12 9 10 9 10 9 5 2 1 0 3 5 8 9 9 11 11 11 12 12 14 12 14 14 11 13 13 13 13 17 24 27
11 11 11 11 11 11 10 9 10 10 11 12 11 11 11 10 10 10 11 10 10 10 10 10 10 10 10 11 11 12 13 13 15 15 12 10 9 9 8 8 10 13 13 14 12 12 13 11 10 9 8 7 6 5 4 9 13 11 10 11 11 10 6 3 2 3 3 5 8 10 10 12 11 11 12 12 14 12 13 14 13 18 18 15 14 18 24 27
10 10 10 10 9 9 9 8 9 9 10 11 11 12 11 11 11 11 12 11 11 11 10 10 10 10 10 11 10 11 12 13 16 15 12 11 10 10 8 8 8 11 12 13 11 11 10 8 8 7 7 6 7 8 6 9 13 10 9 10 11 10 6 3 2 4 4 6 9 10 11 13 10 9 11 11 12 11 12 14 18 21 18 13 15 19 23 26
10 9 9 9 9 8 8 8 8 8 9 10 10 11 11 11 11 12 12 11 11 11 11 10 10 10 9 10 9 10 9 12 18 14 11 12 11 10 10 8 7 9 12 14 14 12 10 8 8 8 9 8 8 10 10 11 11 9 9 9 10 9 5 2 1 3 4 8 10 11 10 11 9 9 13 14 13 13 11 13 20 20 12 10 15 20 23 25
9 9 9 8 8 8 8 8 8 9 9 10 10 11 11 11 11 12 12 11 11 10 11 10 10 9 9 9 8 8 6 7 15 12 10 13 11 11 11 9 9 9 12 15 16 14 12 11 11 11 12 11 9 11 13 12 11 10 10 10 11 11 7 4 3 2 4 5 8 11 11 11 9 9 12 16 14 15 13 12 19 14 6 8 11 18 22 24
8 8 8 8 8 8 8 8 9 9 10 11 11 12 12 12 12 11 11 12 11 10 10 9 10 9 9 8 7 8 6 7 14 9 8 13 12 12 11 11 11 10 13 16 17 15 14 14 15 14 14 13 12 13 13 12 12 13 12 9 10 11 8 6 4 2 1 4 6 10 9 10 12 10 12 14 13 16 15 13 19 13 5 7 8 14 20 22
9 8 8 8 8 8 8 9 10 10 11 11 12 13 13 12 12 12 11 11 11 10 9 9 9 8 8 7 6 7 7 14 17 8 7 10 11 12 12 12 12 11 12 14 17 16 15 15 16 15 14 13 12 12 12 12 13 15 14 11 10 10 6 6 4 3 2 6 4 6 8 12 14 11 11 11 9 13 15 13 18 15 7 7 9 12 17 21
10 9 9 9 9 10 10 10 11 12 12 12 13 14 14 13 13 12 11 11 10 9 9 8 8 8 7 6 6 6 8 18 18 10 10 9 9 11 12 12 13 12 10 12 16 15 15 16 17 16 14 13 11 11 12 12 14 16 16 14 12 9 6 9 7 3 4 6 5 6 9 12 12 10 9 11 10 10 14 16 19 18 11 9 10 12 16 20
11 11 11 11 12 12 12 12 13 13 14 13 14 15 15 14 12 12 11 10 10 9 9 8 7 7 6 6 5 4 11 19 16 12 13 13 11 11 11 12 13 12 10 12 15 16 16 16 16 16 14 12 11 11 12 13 15 16 16 15 14 11 9 11 10 5 6 6 8 7 12 10 9 10 8 11 12 10 15 19 20 19 16 12 10 11 16 20
12 12 12 13 13 14 14 14 14 15 15 15 15 16 16 14 12 11 10 9 9 9 9 8 7 7 6 6 3 4 14 18 16 15 13 13 15 13 12 12 12 13 12 12 15 17 17 15 14 14 14 13 13 13 13 15 15 13 13 13 15 15 13 12 10 9 9 8 8 9 10 7 7 8 8 11 12 12 17 21 20 20 18 14 12 12 15 19
14 13 14 14 15 15 16 16 16 16 15 15 15 16 17 15 12 11 9 8 8 8 8 8 7 6 6 6 5 7 16 16 14 15 13 13 15 15 14 12 12 13 13 13 15 17 17 14 12 12 14 14 13 13 13 16 16 15 13 13 14 14 15 16 13 12 12 10 10 9 9 8 9 9 11 11 10 12 14 18 19 20 19 16 15 14 16 20
14 15 15 15 15 16 17 17 17 16 16 15 16 17 17 14 12 11 8 7 7 6 7 7 6 6 6 7 8 10 14 14 13 13 12 12 13 15 16 14 13 13 14 14 13 16 17 15 13 14 14 11 12 12 12 14 15 15 16 16 16 15 17 18 16 15 14 12 11 11 8 7 11 11 12 12 13 14 12 16 19 20 20 17 17 16 17 21
15 15 15 15 15 16 16 16 17 16 16 16 17 18 16 14 12 10 8 6 6 6 5 5 6 6 6 7 9 10 12 13 13 12 12 12 12 14 16 16 15 13 15 15 12 12 16 17 15 16 15 13 13 11 10 11 12 15 17 18 17 17 18 18 18 18 16 14 14 13 9 7 12 14 12 13 17 18 14 16 18 21 21 18 19 18 18 22
16 16 16 16 16 16 16 16 17 17 17 17 18 17 15 13 11 9 7 5 6 6 5 6 5 6 6 8 9 9 11 12 11 11 11 11 12 14 15 16 16 14 15 17 14 11 15 18 17 17 17 17 16 13 13 12 12 14 15 18 18 18 18 16 17 19 19 17 15 15 12 10 12 13 13 14 17 20 18 17 18 21 22 20 21 19 18 22
17 17 17 17 17 17 17 17 17 17 17 17 17 16 14 12 11 9 7 5 5 5 5 5 5 5 5 7 8 7 8 8 8 8 8 9 10 11 13 16 17 16 15 18 18 15 14 17 18 18 17 16 16 16 16 13 13 15 15 18 19 20 19 15 16 20 20 18 17 17 14 12 12 13 14 16 17 20 21 19 20 21 21 21 21 19 19 23
19 19 18 18 17 17 17 17 17 16 17 16 15 15 13 12 10 9 7 5 5 4 4 4 4 3 5 2 7 7 7 5 5 7 5 7 8 7 11 16 17 17 16 17 19 19 17 17 18 19 17 15 16 17 16 14 15 16 18 19 18 19 19 16 17 20 21 17 17 18 14 10 11 13 15 18 18 20 22 23 23 22 21 20 21 18 18 21
20 19 19 18 17 16 16 15 15 15 15 14 14 13 13 12 10 9 7 5 5 3 4 2 3 5 2 2 6 6 8 7 7 9 6 6 7 9 12 15 16 17 16 17 19 19 19 18 18 18 18 18 17 16 16 16 16 17 20 20 18 18 18 17 17 18 22 18 17 17 14 11 10 13 18 20 19 20 23 23 22 22 22 21 21 19 18 19
19 19 19 17 17 16 16 15 14 14 14 14 14 13 12 11 10 9 7 6 3 3 7 2 3 7 3 4 3 6 12 12 10 10 6 5 6 8 11 11 12 15 15 16 18 18 17 17 17 16 19 20 19 19 20 21 19 17 18 19 19 19 19 18 16 16 21 18 17 18 17 14 10 14 21 20 18 20 22 22 22 22 22 22 22 20 18 17
18 18 19 18 17 16 16 16 15 14 14 14 14 13 12 10 10 10 7 4 2 2 7 3 1 4 4 8 9 11 14 13 10 10 7 4 4 6 8 9 9 12 14 15 17 17 15 15 18 19 20 22 23 24 24 23 20 17 17 17 19 20 20 20 18 17 21 18 19 21 20 16 12 15 22 20 18 21 22 22 22 23 23 23 24 23 21 18
17 18 19 18 17 16 17 16 16 16 14 13 12 12 11 8 6 7 7 5 5 5 3 7 8 3 4 11 13 12 12 11 9 6 7 5 3 3 6 10 9 12 16 15 15 16 16 17 21 24 23 23 24 24 24 22 20 20 20 19 19 20 20 20 19 19 19 18 20 24 23 18 14 17 21 20 20 22 22 21 22 23 22 23 25 27 24 21
17 18 18 18 18 16 16 16 16 16 15 13 11 10 10 7 4 6 10 9 9 10 7 9 11 5 7 13 12 9 4 5 8 6 6 5 2 1 6 10 10 14 16 15 14 14 18 22 23 23 23 22 21 21 23 22 21 22 22 21 20 20 20 20 20 19 18 18 16 20 23 19 16 18 19 20 22 23 22 23 24 24 23 24 25 26 24 22
17 18 17 18 18 16 16 16 15 15 15 14 11 9 8 7 6 8 11 10 9 10 10 10 7 4 10 12 10 5 3 1 7 8 10 4 2 2 8 10 11 15 15 16 17 16 20 25 23 21 21 21 21 20 22 23 22 22 22 21 19 18 18 19 21 21 19 18 15 16 20 20 19 19 18 19 22 22 21 23 25 24 24 25 25 23 24 23
18 18 17 17 18 17 16 15 15 14 13 13 11 10 8 8 8 8 10 8 8 10 9 8 4 4 8 7 6 2 3 2 3 6 11 3 4 3 8 9 11 14 15 17 20 21 21 21 21 21 20 21 23 22 21 22 22 22 22 21 19 17 17 16 20 23 20 19 19 19 20 22 23 21 21 21 21 20 19 22 25 23 22 23 22 21 22 24
19 18 17 17 18 17 16 15 15 13 11 12 11 8 7 8 7 7 8 7 7 7 7 6 6 8 7 5 3 2 2 3 6 5 8 5 4 6 9 10 12 13 16 18 20 23 22 17 16 20 22 22 23 23 23 22 21 23 24 23 20 19 18 16 15 19 22 22 21 19 18 20 21 20 23 25 24 22 21 24 25 23 23 24 24 23 21 23
19 19 18 18 17 17 17 15 13 12 11 10 10 8 7 7 7 6 5 5 5 8 10 7 6 7 5 5 4 1 3 5 7 7 10 5 4 8 8 11 13 14 15 17 20 24 24 19 15 18 21 23 24 24 24 23 21 21 23 25 22 20 19 18 18 17 20 23 23 20 15 15 21 24 26 25 25 26 25 27 27 23 25 26 25 24 22 22
20 20 20 19 18 17 17 16 12 10 10 7 8 9 10 6 6 5 2 5 6 10 10 4 2 3 1 2 2 2 3 5 7 6 8 6 6 8 9 10 12 14 14 15 18 22 23 21 19 18 19 22 25 26 24 23 23 21 19 20 23 24 21 19 20 19 18 20 22 24 19 14 18 27 30 26 24 26 26 27 28 26 27 27 26 25 24 25
20 20 21 20 19 17 15 15 13 8 5 7 9 9 9 5 4 2 2 7 7 10 9 7 6 4 1 2 4 3 2 6 10 6 3 5 4 6 10 9 11 14 12 13 17 19 19 20 21 20 19 21 25 26 24 23 24 22 16 14 18 24 25 23 21 20 18 18 19 24 26 18 17 22 27 27 24 28 30 27 28 27 26 28 28 28 26 25
21 21 21 20 19 18 14 12 12 9 5 8 9 6 5 4 2 3 1 5 5 10 10 9 7 8 6 5 3 4 6 7 9 7 6 8 5 5 8 8 12 14 12 14 18 16 14 18 22 22 22 22 23 23 23 23 24 22 17 14 14 16 21 24 24 23 19 18 20 23 25 18 15 19 22 25 29 33 34 32 32 31 29 29 30 29 26 25
21 20 19 19 18 17 15 11 9 8 6 6 6 4 3 4 4 3 4 5 3 7 9 6 7 7 4 5 4 4 6 5 6 7 8 9 7 5 8 9 11 13 14 16 18 18 15 15 17 21 24 23 21 21 20 23 24 21 18 17 14 12 14 17 21 24 22 19 19 22 24 17 13 18 22 24 29 34 35 34 36 36 32 30 30 29 27 28
19 20 18 18 17 15 15 11 6 5 5 3 2 2 4 6 5 3 6 3 5 6 5 2 3 2 1 4 6 6 5 5 6 7 7 7 9 8 7 9 10 11 14 16 18 20 20 18 16 19 25 23 19 19 21 23 23 19 19 19 17 14 13 12 15 21 19 17 19 22 24 18 13 17 21 24 27 29 32 35 37 36 33 28 28 27 27 29
19 20 19 18 17 15 14 11 6 4 2 1 2 6 6 4 3 8 5 3 4 4 3 0 1 2 3 4 5 3 3 5 5 7 8 7 9 10 8 10 10 10 14 17 19 20 21 23 19 16 21 22 19 19 20 20 20 19 18 19 18 15 13 12 14 16 13 12 19 22 23 21 17 18 19 20 23 24 26 32 35 34 31 29 30 29 29 30
20 20 20 18 17 15 13 10 7 3 1 3 6 9 5 2 8 9 3 1 3 2 3 2 4 3 1 3 4 1 2 3 2 4 8 7 8 9 7 5 4 7 11 13 15 17 20 24 21 15 17 21 20 20 20 19 20 22 21 20 19 13 11 11 10 12 12 12 18 21 22 24 22 22 24 21 18 20 22 26 29 30 31 32 33 31 30 30
20 20 20 18 16 14 11 9 6 2 3 5 8 8 1 6 8 6 2 3 3 5 3 1 3 4 2 2 3 1 3 6 3 3 5 6 7 8 6 4 6 9 11 11 11 13 17 21 24 21 18 20 22 21 22 22 23 26 26 23 19 11 7 8 8 9 12 15 20 22 21 23 24 25 29 28 20 18 21 25 26 28 33 35 34 32 31 30
20 20 19 17 14 11 9 6 2 2 5 7 8 4 4 8 4 3 3 8 6 4 1 2 3 4 5 4 2 1 5 6 4 5 6 5 8 10 5 3 7 8 11 14 12 12 13 14 21 26 23 21 23 23 21 21 21 24 25 23 21 18 11 8 8 8 11 13 18 23 21 20 22 22 25 29 25 18 18 23 26 28 33 35 34 33 33 31
20 19 18 15 11 8 6 2 3 5 7 9 6 2 7 5 6 6 5 8 7 4 3 4 5 6 8 6 1 3 5 4 1 4 7 7 8 5 4 5 2 3 7 9 9 11 15 15 12 17 23 23 24 25 22 20 20 20 23 23 24 24 19 14 13 13 15 14 14 20 22 21 21 19 20 24 26 23 18 18 23 27 32 36 37 35 34 32
21 19 15 11 10 9 4 2 5 6 10 9 1 6 4 4 8 8 6 6 6 5 6 7 5 6 6 8 7 2 3 6 4 5 7 9 10 3 5 5 5 5 6 8 9 10 13 18 14 8 12 22 24 25 25 25 22 17 22 27 25 22 21 19 18 19 18 12 11 18 21 22 21 19 20 22 25 26 22 20 22 24 30 36 38 36 34 32
20 18 11 11 13 8 3 3 5 8 10 6 5 7 3 4 5 7 6 5 7 6 8 8 3 5 5 3 4 6 3 4 3 4 8 6 7 3 2 5 7 5 5 9 10 9 14 22 21 12 8 15 19 22 26 29 27 22 20 23 22 21 22 20 15 13 13 9 9 16 19 19 19 17 21 24 26 27 26 24 23 22 28 35 37 36 32 31
18 14 8 12 15 7 6 8 9 9 7 3 8 8 4 5 5 7 7 5 5 5 6 7 3 3 6 5 2 7 5 4 4 4 8 4 3 2 1 2 7 9 10 10 10 10 14 21 23 16 11 12 14 21 27 28 30 32 25 18 19 20 22 22 15 10 10 8 7 14 17 18 19 18 19 25 27 28 29 29 23 19 23 32 36 34 31 31
14 12 6 12 14 11 14 12 10 8 3 4 7 3 0 4 6 7 6 4 3 3 5 7 4 1 5 6 5 6 7 7 6 7 8 4 2 3 4 8 7 9 12 12 12 13 11 15 22 20 13 13 15 19 27 28 28 31 31 26 23 20 20 23 21 15 11 8 7 11 13 14 16 16 17 24 28 27 28 30 28 23 22 27 31 30 28 27
13 11 5 11 9 12 13 13 11 5 5 7 5 5 3 4 7 7 4 2 1 3 4 5 4 2 5 6 5 6 7 6 7 8 8 6 6 5 5 8 9 8 11 12 12 14 13 12 20 26 20 17 17 15 21 25 25 26 29 30 26 22 19 19 23 25 18 10 7 7 9 12 15 15 14 17 23 26 26 26 27 28 27 26 25 25 23 21
14 9 7 11 6 13 11 12 9 5 6 4 2 3 1 3 7 9 5 3 3 3 4 4 4 5 7 7 5 5 5 6 7 7 8 9 7 7 6 4 6 5 9 12 10 10 12 11 18 25 23 18 16 13 14 18 19 21 26 31 29 24 20 15 15 25 26 17 12 8 8 12 14 16 17 16 17 23 26 25 24 25 29 28 27 27 23 22
14 7 9 5 7 11 10 9 4 3 5 4 6 5 2 2 5 7 5 3 3 3 4 4 4 3 4 5 5 6 7 8 9 8 9 8 5 4 4 5 7 6 9 11 8 10 14 13 15 22 22 23 22 19 19 20 20 20 21 27 29 27 27 20 11 18 25 23 21 15 12 12 10 10 18 20 17 19 22 26 27 25 27 28 28 29 27 27
10 8 5 8 14 11 11 6 1 3 6 4 4 6 5 4 4 5 6 5 2 3 4 4 4 2 1 2 4 6 7 8 8 8 9 8 5 4 6 8 10 8 8 8 6 12 17 14 15 20 22 26 28 25 25 23 20 22 24 24 24 22 26 27 20 19 22 23 23 16 12 14 10 6 11 17 14 15 16 19 24 26 28 28 28 29 30 31
12 9 8 9 12 12 10 6 4 4 5 3 2 5 5 4 4 4 5 5 3 4 5 4 3 3 3 4 5 6 7 8 9 9 10 9 8 9 8 8 9 7 6 6 7 12 13 9 13 16 14 16 20 23 26 25 20 20 21 21 22 23 26 27 25 21 21 23 24 16 13 18 11 4 7 14 12 13 13 13 18 22 25 28 29 29 29 32
16 12 9 8 11 10 7 5 6 5 5 4 3 4 3 4 8 8 4 3 3 3 5 4 4 5 6 5 6 7 8 10 10 9 10 11 13 14 11 10 10 6 4 9 14 16 13 11 13 14 11 10 11 11 12 13 15 16 17 16 17 21 24 23 24 21 19 22 24 17 16 22 16 5 8 12 12 12 10 9 13 16 19 21 24 27 28 30
14 7 4 6 8 8 7 7 7 6 5 3 2 3 4 4 9 10 4 3 4 3 4 6 5 5 6 6 7 9 9 9 9 10 11 12 14 14 12 13 12 9 8 13 18 17 14 15 16 17 17 19 20 14 7 12 17 17 18 18 15 17 21 19 19 22 21 22 27 22 14 15 15 10 11 14 15 15 10 6 7 10 15 17 16 19 24 29
11 4 2 4 5 7 8 6 7 6 3 4 2 1 4 4 6 10 5 3 5 5 4 6 5 6 8 7 6 8 8 8 9 11 12 12 13 13 13 14 13 12 13 15 17 14 13 16 19 21 22 25 30 27 20 20 22 21 22 22 19 20 25 24 20 20 19 17 21 24 19 16 12 4 6 11 16 20 15 10 8 8 13 17 14 10 15 20
9 5 4 4 4 6 5 4 9 8 3 4 3 0 4 6 6 7 4 3 6 5 5 6 6 6 7 7 6 8 9 8 9 10 10 11 13 12 13 13 12 13 14 14 13 12 14 17 18 21 23 25 28 29 26 24 23 23 25 25 23 23 24 23 23 23 22 21 22 22 22 22 14 3 2 4 11 16 13 7 8 9 12 14 12 8 8 11
8 5 5 6 6 7 6 6 8 7 5 6 4 1 4 6 6 5 3 4 6 6 6 6 7 7 8 8 8 8 9 8 9 10 10 11 13 13 14 14 12 12 12 13 13 13 16 19 17 19 23 25 25 26 26 24 23 24 26 25 25 24 23 23 24 25 26 26 26 24 20 21 16 10 8 3 14 15 10 5 5 11 15 12 10 10 7 9
10 7 9 13 8 1 4 6 4 4 4 5 4 4 3 4 5 4 2 4 6 7 6 7 8 9 9 10 9 9 9 8 9 11 10 12 13 12 15 16 13 11 11 12 12 12 14 17 15 16 21 23 23 24 24 23 23 25 26 27 27 26 24 24 24 25 26 24 23 22 21 21 16 11 11 8 13 10 6 7 5 10 13 14 12 6 5 12
12 8 8 12 8 2 5 6 5 4 2 2 3 3 3 3 4 5 4 4 6 6 5 6 10 10 9 10 10 9 9 9 10 11 11 13 14 14 17 18 15 13 12 11 10 10 13 15 14 15 19 21 21 21 22 22 23 26 28 28 28 26 25 23 22 23 23 21 22 24 26 26 18 11 13 14 7 3 3 2 4 9 12 11 7 5 1 8
14 11 9 13 13 8 7 6 6 5 2 7 5 2 2 2 4 6 5 4 4 4 4 7 10 11 10 10 10 9 9 10 12 13 14 16 17 17 18 18 18 18 17 15 14 13 14 16 15 15 18 20 18 18 21 21 20 23 26 27 28 29 27 24 24 24 22 22 23 24 27 27 20 14 17 19 13 11 11 9 5 7 10 6 2 6 3 8
Wind_Direction
318 315 311 310 308 309 308 306 302 299 298 296 295 294 294 295 296 296 294 296 298 298 294 287 282 277 270 263 257 252 249 247 250 252 251 249 246 244 242 234 225 227 225 226 229 227 227 227 233 237 231 235 241 216 200 232 245 251 262 297 335 342 328 338 62 241 218 187 171 167 154 148 152 150 149 139 145 151 136 148 146 128 149 162 166 172 164 160
328 323 320 318 316 317 314 311 305 300 297 294 293 289 288 289 290 291 289 292 295 296 295 291 285 279 276 270 260 254 251 248 249 249 250 250 246 246 246 241 230 227 224 228 233 233 232 228 234 237 230 235 248 253 229 235 241 239 254 279 308 324 300 259 26 50 170 188 168 163 160 159 155 143 147 137 137 145 137 148 140 133 159 173 163 170 170 165
339 334 332 332 332 332 327 323 316 310 304 299 295 291 289 286 285 285 284 286 289 291 292 292 288 282 279 274 269 260 254 253 250 246 247 246 242 245 245 241 234 226 219 218 222 224 219 213 225 219 217 227 230 248 250 239 241 244 255 261 283 310 306 264 49 57 137 178 184 178 166 157 149 148 159 143 134 137 137 144 144 153 169 169 164 171 174 171
343 340 339 341 344 344 343 341 333 329 323 317 311 304 298 291 285 281 281 284 284 287 288 290 289 283 280 276 275 266 261 264 255 242 240 244 238 241 240 236 232 223 213 208 210 210 188 184 214 203 203 216 216 233 236 231 236 246 251 253 273 293 314 329 76 87 125 164 190 194 170 151 149 168 166 148 145 143 141 149 151 166 174 155 163 168 175 177
341 339 338 343 346 348 351 350 346 344 340 336 331 323 316 305 294 283 281 282 281 283 285 288 287 284 282 274 274 269 260 267 259 242 234 242 236 237 237 231 228 219 210 205 208 202 174 176 208 209 207 211 215 229 231 230 238 249 254 264 274 281 308 310 246 113 110 160 191 196 174 157 165 180 169 155 163 157 145 155 159 172 173 143 163 165 174 181
336 334 335 338 343 346 349 350 347 346 343 341 337 332 326 318 309 297 286 282 281 283 283 286 284 283 282 273 271 262 224 236 260 252 235 239 235 235 234 232 227 220 214 206 206 201 178 183 205 213 214 213 218 229 234 234 241 251 258 265 266 272 294 288 261 66 29 234 197 193 172 169 181 178 170 163 175 174 160 160 165 176 174 142 160 166 174 180
328 326 326 330 334 335 336 338 337 336 337 337 336 333 327 319 315 310 301 291 284 283 284 283 283 282 279 274 264 254 230 240 252 252 246 239 233 236 233 233 229 224 222 209 207 202 185 190 204 212 218 221 225 230 238 242 243 250 257 262 264 271 288 285 266 116 262 260 191 197 182 180 182 164 164 164 172 180 171 166 165 173 185 153 152 166 174 178
320 316 315 318 319 320 322 323 324 326 328 330 332 332 329 321 312 310 309 302 291 286 285 282 283 281 278 275 262 255 242 244 246 241 246 243 230 235 233 234 232 228 227 213 208 200 188 196 204 211 220 226 232 236 241 246 247 248 253 258 265 277 294 288 276 165 223 248 239 234 184 178 180 160 158 165 176 180 173 172 165 169 182 164 151 163 173 176
315 311 308 309 309 310 312 313 316 317 320 323 325 328 330 324 314 306 304 305 300 289 283 281 283 281 277 271 258 254 247 249 254 245 241 243 234 234 234 232 231 226 221 213 205 193 190 203 210 213 221 229 239 247 246 248 248 247 251 252 252 261 267 278 285 251 225 229 241 206 154 156 166 165 159 170 186 174 168 174 167 170 177 172 161 162 171 175
315 310 307 306 305 306 307 310 314 314 317 319 320 326 331 329 321 308 298 298 300 294 286 280 278 277 276 269 233 239 255 255 260 252 241 244 237 233 233 230 228 222 215 212 205 192 191 204 211 217 228 235 241 248 248 246 250 252 254 252 249 251 249 256 268 253 232 224 223 182 163 159 149 169 171 175 184 157 159 168 165 173 178 174 170 166 170 175
316 311 309 307 307 307 308 311 313 315 317 318 320 325 331 332 325 315 300 290 292 295 287 279 280 273 267 264 229 239 259 260 262 257 249 246 238 233 232 228 225 221 214 211 206 193 190 200 207 220 233 240 245 253 257 250 252 256 254 256 254 252 249 246 247 241 231 223 219 206 205 180 158 178 175 176 180 158 161 165 165 175 177 175 174 173 171 174
320 316 313 311 310 309 310 313 314 316 316 318 321 325 333 333 327 320 304 287 285 290 289 284 282 275 275 267 243 247 264 264 265 262 253 247 240 233 230 230 224 220 215 208 205 196 191 200 211 221 228 241 249 251 262 254 249 251 249 255 259 257 253 246 239 236 232 220 211 212 211 185 184 185 172 178 176 168 175 169 170 177 177 178 178 178 174 174
325 322 320 318 316 314 315 316 316 317 317 320 322 326 333 332 328 325 312 294 281 284 289 287 288 289 290 271 253 257 268 267 266 265 258 250 244 235 229 230 225 220 216 203 198 205 199 200 214 226 227 241 247 244 266 260 245 246 246 250 256 259 255 245 235 230 229 220 210 212 210 199 198 187 180 187 176 169 171 169 173 178 178 181 181 181 178 177
328 328 328 326 325 323 321 321 320 319 319 320 322 327 331 331 331 328 320 304 285 286 288 290 296 295 294 288 282 279 277 276 270 263 260 251 242 238 229 228 226 221 220 206 192 205 214 206 212 228 229 238 244 249 270 267 248 245 244 245 246 251 253 245 232 224 224 221 211 216 219 208 202 202 199 192 181 171 163 168 177 179 181 182 185 187 184 183
330 330 331 330 329 327 325 323 321 319 320 320 322 325 327 329 330 329 328 317 300 293 290 300 301 309 344 320 299 302 299 297 290 273 262 251 242 242 235 229 226 220 219 213 197 194 214 215 215 226 231 238 243 249 261 262 251 241 237 239 235 240 250 248 234 220 219 219 208 211 221 215 207 216 209 188 186 180 168 174 180 181 185 184 188 192 189 188
332 332 333 332 330 328 325 323 321 319 318 319 320 322 326 326 327 328 327 330 331 319 311 331 323 342 61 350 304 325 327 317 312 302 287 261 236 226 236 229 223 221 216 215 210 202 204 211 218 226 232 238 239 241 249 255 250 234 230 236 232 234 242 246 242 224 213 212 206 209 219 212 203 214 204 186 192 193 182 183 184 182 184 186 192 195 193 192
333 333 334 334 332 329 327 324 322 320 317 317 319 320 324 322 324 325 324 338 344 343 343 340 11 17 70 302 317 317 311 311 311 310 306 282 234 208 231 234 224 223 217 213 217 212 207 209 215 223 228 230 230 231 237 241 238 228 224 232 237 237 238 241 246 224 203 202 205 212 226 220 208 209 198 195 208 206 193 190 192 187 182 185 193 198 198 196
335 333 333 335 333 330 328 324 322 321 318 318 318 319 322 321 321 317 313 327 329 17 4 348 67 24 321 280 290 270 296 311 314 311 301 282 257 227 230 234 226 221 217 217 218 214 212 214 215 223 228 226 223 221 224 228 228 226 222 226 235 240 241 242 244 214 191 200 212 212 222 223 217 202 193 202 213 205 198 194 194 192 185 187 191 198 203 197
337 334 332 333 332 330 326 324 322 320 319 320 320 320 319 318 321 314 304 304 277 13 3 305 288 4 292 274 274 280 301 311 320 321 313 296 266 244 219 211 218 214 209 217 222 215 209 214 215 220 225 222 219 218 221 228 232 237 235 232 234 237 240 239 243 224 195 200 216 210 213 218 214 197 192 204 208 202 204 196 194 197 191 189 189 194 203 203
338 333 332 331 331 332 327 326 325 322 323 322 320 318 313 312 318 303 296 296 284 287 265 245 261 255 250 272 278 294 305 315 335 328 313 317 286 244 205 199 205 209 207 209 220 219 210 215 219 220 222 222 223 223 227 236 242 250 253 248 241 238 241 237 240 237 208 200 215 216 217 221 215 201 199 206 202 202 204 193 196 203 196 194 194 190 196 205
338 334 333 330 331 333 329 328 327 323 322 320 316 311 306 307 277 254 281 297 291 282 244 240 261 248 245 259 273 301 305 313 322 297 292 317 332 200 200 199 200 212 214 206 215 222 216 221 225 225 226 226 228 230 235 241 245 252 256 258 254 244 241 239 239 239 216 204 217 213 210 215 209 199 205 206 194 197 203 195 201 207 200 201 205 194 188 201
337 335 333 331 330 332 331 328 325 323 321 319 317 309 302 298 282 264 278 284 275 277 267 261 268 265 268 269 278 285 123 350 299 294 304 308 108 177 214 217 210 217 221 211 214 217 218 227 228 228 231 230 232 233 237 241 243 249 252 256 259 252 246 239 237 241 220 201 209 207 205 216 216 207 213 211 199 202 204 200 207 210 202 206 215 203 188 194
337 334 333 333 330 330 333 328 325 324 318 315 313 311 305 296 290 281 278 272 271 282 283 276 256 244 272 292 295 236 112 346 254 280 299 259 143 206 222 231 225 223 225 216 217 218 221 231 231 229 231 231 233 234 237 240 240 244 246 248 249 249 254 243 231 236 230 212 210 212 215 224 229 224 217 210 207 209 204 204 216 218 210 211 214 205 193 194
336 332 332 333 331 330 330 329 327 322 319 318 314 312 307 296 290 287 280 281 284 267 251 251 232 231 248 264 276 119 106 249 191 251 285 142 140 252 228 234 237 233 232 223 224 228 231 236 233 229 229 230 233 232 234 237 238 238 238 241 243 242 252 261 248 237 236 228 210 206 216 217 220 219 208 208 211 208 201 205 218 220 213 212 211 203 198 202
334 331 332 332 332 330 327 332 330 323 335 331 311 314 316 301 292 288 278 290 282 222 221 248 247 240 261 261 242 94 314 250 191 242 261 204 223 251 231 238 240 238 238 231 230 235 238 238 233 229 227 229 232 232 230 233 238 240 236 236 240 243 248 261 266 258 247 233 209 204 220 213 205 203 204 214 215 207 204 210 219 220 211 210 209 201 196 204
334 331 332 330 332 332 326 331 329 332 354 332 294 308 313 302 286 275 254 274 242 193 208 234 163 168 357 338 177 139 317 242 217 261 279 260 241 231 230 235 240 242 240 240 240 240 241 237 232 232 229 227 229 232 229 228 236 241 238 233 235 243 250 255 261 267 260 244 222 211 216 222 211 203 206 219 220 207 205 214 224 222 212 211 210 205 200 205
334 332 332 331 331 332 330 329 325 332 341 300 296 308 302 292 274 239 256 263 213 181 192 178 157 164 343 340 156 153 314 241 243 277 317 282 253 234 241 233 241 246 238 244 246 242 238 234 232 231 231 229 228 230 228 225 233 238 238 236 233 236 243 249 254 263 265 262 251 219 208 220 230 218 213 217 213 202 201 210 223 221 214 213 209 205 204 205
335 333 333 331 329 330 332 328 319 316 292 283 298 302 285 266 215 145 270 275 169 163 189 197 235 256 264 282 195 211 283 258 249 255 253 280 287 248 257 252 250 249 240 244 247 245 236 232 232 229 230 232 230 229 226 225 231 235 235 241 244 237 238 242 245 255 261 264 262 235 217 221 229 226 218 205 196 196 203 210 214 218 216 213 209 205 205 205
335 332 330 330 328 327 328 327 316 310 303 292 293 285 249 209 165 143 257 271 127 156 195 220 278 274 256 285 245 237 277 246 237 260 268 293 303 264 250 246 251 256 254 253 251 251 243 233 233 230 231 233 233 232 226 226 230 233 235 242 250 247 242 241 239 245 253 257 257 244 233 234 233 225 212 202 197 198 206 206 204 215 221 216 213 209 206 205
334 331 330 331 330 329 328 329 324 310 308 300 271 220 192 171 158 224 247 203 127 150 183 225 287 281 327 285 231 229 276 246 241 273 280 281 282 282 265 245 252 262 261 261 258 257 255 251 244 233 232 232 234 234 228 227 229 230 232 237 246 244 238 247 241 239 245 248 248 246 241 241 248 232 211 211 214 207 208 204 201 213 221 220 217 213 208 206
336 332 334 334 333 334 332 332 343 333 313 233 188 171 160 147 214 255 250 146 147 154 156 313 315 273 302 283 231 229 281 254 253 275 275 262 253 262 267 252 246 254 257 254 253 257 259 258 252 237 232 231 233 234 231 229 224 223 226 228 238 236 226 241 244 235 240 241 237 241 243 243 248 243 230 223 216 208 209 207 207 213 217 216 214 214 214 211
337 334 336 336 334 335 331 330 339 334 85 138 161 153 141 272 243 240 258 206 213 141 139 124 49 36 320 258 239 267 299 249 254 287 272 261 250 247 245 240 252 267 261 251 249 249 246 247 247 241 231 228 229 227 226 226 218 219 225 224 228 226 214 224 231 227 236 242 235 234 238 243 247 246 246 242 218 210 218 214 210 211 212 210 208 212 216 213
336 335 334 333 333 333 329 328 331 352 100 140 151 130 83 277 244 242 323 50 94 86 112 150 42 24 339 259 237 244 288 267 264 316 291 265 265 258 235 251 283 280 282 291 287 260 240 232 233 238 238 228 225 221 219 220 215 216 219 219 220 222 216 216 218 228 238 239 233 231 234 240 243 240 243 248 240 225 223 216 209 209 209 209 211 218 221 220
333 333 332 333 333 330 328 329 351 90 117 141 132 94 275 261 280 307 38 65 60 51 39 275 319 313 269 270 323 315 285 283 273 288 288 262 259 254 228 249 267 270 289 297 293 277 262 238 222 225 230 226 223 223 221 218 216 215 215 218 220 223 228 227 219 222 234 239 230 224 227 234 238 235 234 241 242 231 221 214 207 205 205 209 217 223 224 228
330 333 333 332 331 336 337 358 89 111 133 126 103 323 266 268 5 18 63 54 26 20 8 305 296 292 254 229 265 296 263 266 324 295 276 254 257 261 78 62 5 340 320 296 295 301 286 265 235 224 227 225 223 222 223 228 227 213 209 219 223 221 229 243 247 244 241 243 230 220 224 230 237 239 230 230 232 231 230 220 206 200 202 209 216 219 223 228
330 333 335 342 349 355 355 64 95 129 139 115 24 276 274 9 16 19 31 17 5 6 333 309 275 260 242 198 184 165 233 253 279 302 279 249 246 262 55 30 359 11 357 326 313 317 302 281 285 301 245 226 221 217 215 224 232 216 205 216 224 222 228 239 253 263 261 254 234 226 227 225 229 235 228 220 222 227 227 224 217 205 203 209 211 215 221 221
333 334 349 22 14 0 354 65 111 141 133 95 309 276 314 355 352 7 6 347 352 346 313 310 278 257 281 229 171 103 76 275 279 291 277 246 228 236 51 11 353 339 313 323 307 308 323 299 286 306 283 234 228 223 215 217 228 231 217 213 218 224 231 240 251 257 256 256 243 236 233 222 216 221 223 217 217 220 217 219 222 208 203 211 211 212 217 211
340 345 12 25 14 28 74 85 121 129 106 24 294 273 294 337 349 358 353 343 342 326 303 315 337 287 287 283 350 48 23 321 31 348 291 263 212 220 166 354 359 342 304 300 297 299 320 304 284 282 285 267 251 231 220 216 225 237 241 225 215 219 223 229 239 246 245 250 249 242 241 232 220 214 213 213 214 214 209 211 215 202 198 206 204 204 206 204
358 15 18 357 11 69 92 91 105 99 71 317 312 297 229 0 4 352 347 357 338 305 305 324 344 293 260 269 314 338 312 305 338 330 307 298 281 301 310 291 294 321 313 297 293 293 300 300 284 271 274 294 285 245 223 217 218 231 246 247 239 239 232 222 224 233 242 251 250 243 243 242 234 224 213 211 212 210 206 208 212 205 196 197 198 200 205 207
23 40 345 331 25 100 95 70 66 47 266 262 340 29 75 40 16 0 357 67 22 306 309 333 337 302 303 321 333 311 292 299 310 307 299 301 303 288 302 313 291 286 306 304 298 290 280 281 276 269 275 292 288 255 222 216 213 216 233 246 246 246 248 240 229 224 228 247 256 248 243 236 235 235 226 214 207 204 205 207 210 207 200 199 199 200 207 209
43 60 296 318 61 111 77 38 30 354 281 247 28 22 61 50 19 4 358 66 61 337 318 331 314 304 313 316 329 336 323 308 304 302 285 284 296 267 249 321 340 331 327 316 312 302 280 270 271 273 276 274 266 252 232 232 237 230 229 238 239 233 237 250 236 220 221 232 241 258 263 240 236 234 224 210 200 202 205 207 209 206 203 205 204 202 209 207
44 30 302 308 118 112 57 17 345 353 1 40 50 12 341 345 356 4 359 17 48 358 357 1 317 307 322 312 317 335 326 301 292 292 284 283 302 298 281 305 317 339 344 323 309 294 278 267 270 270 268 267 264 257 252 255 265 269 255 242 236 229 224 229 239 227 221 222 229 246 262 253 262 247 211 200 198 201 204 207 209 208 206 208 208 207 212 209
50 20 3 111 119 88 39 15 36 50 15 25 34 8 24 38 8 17 18 9 8 341 343 3 355 323 300 338 333 324 319 308 293 285 288 285 273 302 340 330 313 316 325 323 305 279 269 260 267 270 271 272 264 252 254 261 269 285 285 263 246 244 237 230 233 241 234 223 218 226 249 251 274 292 200 187 188 194 197 205 210 212 211 212 211 212 212 210
63 52 56 94 89 55 29 25 60 40 7 20 33 357 16 42 5 344 0 5 15 9 340 328 354 330 298 323 326 315 313 309 295 278 280 278 275 302 330 331 328 335 314 289 274 274 274 265 267 270 270 270 258 248 254 260 263 275 281 264 250 267 267 240 231 250 255 237 223 216 228 235 251 311 186 181 191 200 195 201 210 212 212 213 215 216 213 210
50 50 48 43 50 47 36 60 67 38 16 33 39 10 355 359 346 329 329 345 333 11 2 320 297 299 301 307 305 301 298 296 290 278 280 282 286 302 313 302 305 328 305 266 254 258 271 278 276 272 261 252 245 242 251 270 281 281 283 278 264 274 277 250 239 258 265 252 246 238 223 224 232 244 193 193 209 207 193 198 207 207 208 207 211 216 216 215
46 44 39 32 48 47 42 67 57 30 39 40 19 31 26 4 348 345 20 51 342 352 6 328 296 298 312 303 291 294 292 290 285 274 278 286 285 290 295 289 290 294 279 261 251 251 266 271 267 269 270 265 261 263 292 319 312 296 285 281 269 279 299 293 268 258 254 256 255 249 237 234 235 223 206 213 214 205 201 203 194 196 202 200 201 204 207 213
48 40 69 75 73 41 35 56 33 7 17 23 0 5 8 357 348 352 13 44 4 359 350 327 304 310 330 324 302 295 291 288 284 276 278 283 281 284 287 284 284 282 272 264 259 258 267 267 259 260 267 267 265 270 285 297 295 290 284 277 269 282 304 314 303 281 278 282 261 242 235 245 259 250 204 205 196 196 208 218 215 208 197 200 209 194 179 192
58 62 88 95 61 24 17 44 34 15 4 42 60 191 1 1 351 355 351 347 1 351 329 333 326 314 321 317 304 297 293 289 285 281 283 287 286 290 292 288 282 279 276 272 268 259 259 263 261 259 262 264 267 273 281 283 281 281 281 279 279 285 293 296 295 289 289 292 276 253 237 240 253 254 180 122 129 162 181 199 217 195 170 185 201 174 142 167
55 76 105 87 52 26 26 36 34 25 38 71 73 331 19 21 356 350 322 321 345 331 315 331 325 310 305 298 294 291 290 295 296 293 296 300 298 296 294 291 282 277 277 270 260 252 257 262 261 261 263 264 265 270 274 275 276 276 275 274 276 281 285 285 285 285 282 278 270 259 245 239 238 226 228 117 103 129 135 102 138 138 125 129 138 134 129 151
40 73 104 91 78 43 42 37 24 22 33 52 29 330 352 23 348 333 322 326 326 310 309 318 308 303 303 296 289 286 290 296 298 298 297 295 294 290 288 289 286 280 279 271 253 242 252 261 264 266 270 268 265 267 270 271 271 271 272 273 274 274 276 276 276 279 278 272 264 256 245 235 231 237 238 180 124 116 83 62 106 133 127 125 120 114 125 130
36 53 90 87 74 63 61 37 17 38 15 327 11 7 356 6 337 322 318 307 295 290 303 320 311 301 298 296 291 290 294 292 287 290 290 284 284 284 285 289 290 284 282 278 263 246 246 256 263 266 270 271 267 265 266 268 269 267 264 265 267 267 267 267 267 270 267 263 261 255 244 235 232 246 239 211 196 289 315 72 141 155 150 138 97 29 42 131
34 49 70 75 63 50 56 35 4 25 333 293 314 21 18 342 330 332 327 305 311 320 315 318 312 301 298 299 291 284 286 288 286 285 283 278 276 276 277 279 278 276 276 274 268 260 252 253 257 258 264 269 268 266 267 265 263 259 255 256 259 261 261 259 261 264 261 259 258 250 244 242 241 250 242 227 239 269 256 242 222 158 152 161 10 354 273 211
Height
3146 3144 3143 3142 3141 3141 3140 3139 3138 3137 3136 3136 3135 3134 3134 3133 3133 3132 3132 3131 3131 3131 3130 3130 3130 3129 3129 3129 3129 3129 3129 3129 3129 3129 3130 3131 3131 3132 3132 3133 3134 3134 3136 3136 3137 3139 3141 3142 3144 3145 3147 3148 3149 3151 3153 3155 3156 3157 3157 3156 3156 3156 3156 3154 3152 3153 3153 3153 3154 3155 3154 3155 3155 3156 3156 3157 3158 3158 3159 3161 3161 3163 3164 3163 3164 3165 3166 3167
3145 3144 3143 3142 3141 3140 3139 3138 3137 3136 3136 3135 3134 3133 3133 3132 3132 3131 3131 3130 3130 3130 3129 3129 3129 3128 3128 3128 3128 3128 3128 3128 3128 3128 3129 3130 3131 3131 3132 3132 3133 3134 3135 3136 3138 3139 3141 3142 3144 3145 3147 3148 3150 3151 3152 3155 3155 3156 3157 3156 3156 3157 3157 3155 3153 3153 3153 3154 3155 3155 3155 3155 3156 3156 3156 3157 3158 3159 3159 3161 3162 3163 3163 3163 3164 3166 3167 3168
3145 3144 3142 3141 3140 3140 3139 3138 3137 3136 3135 3134 3133 3132 3132 3131 3131 3130 3129 3129 3129 3129 3128 3128 3128 3128 3127 3127 3127 3127 3127 3127 3126 3127 3129 3129 3130 3130 3131 3132 3132 3133 3134 3136 3137 3138 3140 3142 3143 3145 3147 3149 3150 3152 3153 3155 3155 3155 3157 3157 3156 3156 3156 3154 3153 3153 3152 3155 3156 3155 3155 3155 3156 3157 3157 3158 3159 3160 3160 3161 3162 3162 3162 3163 3165 3166 3168 3169
3145 3143 3142 3141 3140 3139 3138 3137 3136 3135 3134 3134 3133 3132 3131 3130 3130 3129 3128 3128 3128 3128 3127 3127 3127 3127 3127 3126 3126 3126 3126 3126 3124 3126 3128 3128 3129 3130 3130 3131 3131 3132 3133 3134 3135 3137 3139 3141 3143 3145 3147 3149 3151 3153 3154 3155 3155 3155 3156 3157 3156 3156 3156 3154 3154 3154 3152 3155 3157 3156 3156 3156 3155 3158 3158 3159 3160 3161 3162 3163 3162 3162 3162 3163 3165 3166 3168 3170
3145 3143 3142 3141 3140 3139 3138 3137 3136 3135 3134 3133 3132 3131 3130 3129 3129 3128 3127 3127 3127 3127 3126 3126 3126 3126 3126 3125 3126 3125 3126 3125 3122 3125 3127 3127 3128 3129 3129 3130 3130 3131 3132 3133 3134 3136 3138 3141 3144 3145 3147 3149 3151 3153 3154 3155 3155 3155 3156 3156 3155 3155 3156 3154 3154 3153 3152 3155 3157 3157 3158 3157 3156 3158 3159 3159 3160 3161 3162 3163 3164 3163 3163 3164 3165 3166 3168 3170
3144 3143 3142 3141 3140 3139 3138 3137 3136 3135 3134 3133 3132 3131 3130 3129 3128 3127 3126 3126 3126 3126 3125 3125 3124 3125 3125 3125 3125 3124 3125 3124 3121 3124 3125 3126 3127 3128 3128 3129 3130 3131 3131 3132 3133 3135 3137 3141 3144 3146 3147 3148 3151 3153 3154 3155 3155 3155 3155 3156 3155 3154 3156 3155 3154 3153 3153 3155 3158 3159 3158 3158 3157 3158 3160 3160 3160 3162 3163 3164 3164 3164 3164 3165 3166 3167 3168 3170
3143 3142 3141 3140 3139 3138 3137 3136 3135 3134 3133 3132 3131 3130 3129 3128 3127 3126 3125 3125 3125 3124 3124 3124 3123 3124 3123 3124 3124 3124 3124 3122 3120 3123 3124 3125 3126 3127 3128 3128 3129 3130 3130 3132 3133 3134 3137 3141 3143 3146 3147 3148 3150 3152 3154 3154 3154 3154 3154 3155 3155 3154 3154 3155 3155 3155 3155 3156 3158 3159 3158 3158 3158 3158 3160 3161 3161 3162 3163 3164 3164 3164 3164 3165 3166 3167 3169 3170
3143 3141 3140 3139 3138 3137 3136 3135 3134 3133 3133 3132 3131 3130 3128 3127 3126 3125 3124 3124 3123 3123 3123 3123 3123 3122 3122 3123 3123 3123 3123 3120 3120 3123 3124 3124 3125 3126 3126 3127 3128 3129 3130 3131 3132 3134 3137 3140 3143 3145 3147 3148 3150 3151 3153 3154 3154 3153 3153 3154 3154 3153 3153 3154 3154 3155 3156 3156 3156 3157 3159 3159 3158 3159 3160 3162 3162 3162 3164 3164 3165 3165 3165 3165 3167 3168 3169 3171
3142 3141 3140 3138 3137 3136 3135 3134 3133 3132 3132 3131 3130 3129 3128 3126 3125 3124 3123 3123 3122 3122 3122 3122 3122 3121 3122 3121 3122 3122 3120 3119 3120 3122 3123 3123 3124 3125 3125 3126 3127 3129 3130 3131 3132 3134 3137 3140 3143 3145 3147 3148 3150 3151 3152 3153 3152 3152 3152 3153 3154 3154 3153 3153 3153 3154 3156 3157 3155 3155 3157 3159 3159 3160 3161 3162 3162 3162 3164 3164 3165 3166 3166 3166 3167 3168 3169 3170
3141 3140 3139 3137 3136 3135 3134 3133 3132 3131 3130 3129 3128 3127 3126 3125 3124 3123 3122 3122 3121 3121 3121 3121 3121 3120 3121 3120 3121 3121 3118 3118 3120 3120 3121 3122 3123 3124 3125 3125 3126 3128 3129 3130 3131 3133 3136 3140 3143 3145 3146 3147 3149 3150 3151 3151 3151 3151 3152 3152 3153 3154 3154 3154 3153 3154 3155 3157 3157 3155 3155 3158 3159 3160 3161 3162 3162 3162 3163 3164 3165 3167 3167 3166 3167 3168 3169 3171
3140 3139 3137 3136 3135 3133 3132 3131 3130 3129 3129 3128 3127 3126 3125 3124 3123 3122 3121 3121 3120 3120 3120 3119 3119 3119 3120 3119 3120 3119 3117 3118 3118 3118 3120 3121 3122 3123 3123 3124 3126 3127 3128 3130 3131 3132 3135 3139 3143 3145 3146 3146 3147 3148 3149 3149 3149 3150 3151 3151 3151 3152 3153 3153 3154 3154 3154 3155 3156 3155 3155 3157 3159 3160 3161 3162 3162 3162 3163 3163 3165 3167 3167 3167 3168 3169 3170 3171
3138 3137 3136 3135 3134 3132 3131 3130 3129 3128 3127 3126 3125 3124 3123 3122 3121 3120 3120 3120 3119 3119 3119 3118 3118 3118 3118 3118 3118 3117 3116 3117 3117 3118 3119 3120 3120 3121 3122 3123 3125 3126 3127 3129 3130 3132 3135 3138 3141 3143 3145 3146 3146 3147 3147 3147 3148 3149 3149 3149 3149 3150 3150 3150 3152 3153 3153 3154 3153 3153 3155 3157 3158 3160 3160 3161 3161 3161 3162 3163 3165 3166 3167 3167 3168 3169 3170 3171
3137 3136 3135 3134 3132 3131 3130 3128 3127 3126 3125 3124 3123 3123 3122 3121 3120 3119 3119 3119 3119 3119 3118 3118 3117 3117 3117 3117 3117 3116 3116 3115 3116 3117 3117 3118 3119 3120 3121 3122 3123 3125 3126 3128 3130 3132 3134 3136 3139 3141 3143 3144 3145 3146 3145 3145 3146 3147 3148 3148 3148 3148 3147 3147 3149 3150 3151 3153 3152 3152 3154 3156 3157 3158 3159 3160 3160 3160 3161 3163 3165 3166 3167 3168 3168 3169 3170 3171
3136 3135 3134 3132 3131 3130 3128 3127 3126 3124 3123 3123 3122 3121 3121 3120 3119 3119 3118 3118 3118 3118 3118 3117 3117 3117 3116 3115 3115 3115 3115 3114 3115 3115 3116 3117 3118 3119 3120 3121 3122 3124 3125 3126 3129 3132 3133 3135 3137 3138 3140 3141 3143 3144 3144 3145 3145 3145 3146 3146 3146 3145 3144 3145 3147 3148 3149 3150 3151 3151 3153 3154 3155 3156 3157 3158 3159 3160 3161 3162 3164 3165 3167 3168 3168 3169 3170 3171
3135 3133 3132 3131 3130 3128 3127 3126 3125 3123 3122 3121 3121 3120 3120 3119 3119 3118 3118 3117 3117 3117 3117 3117 3116 3116 3116 3115 3115 3115 3114 3114 3114 3114 3115 3116 3117 3118 3119 3120 3121 3123 3124 3125 3127 3129 3132 3133 3135 3136 3137 3139 3140 3141 3142 3143 3143 3144 3144 3143 3143 3143 3142 3143 3144 3145 3146 3148 3150 3150 3151 3153 3154 3155 3156 3156 3157 3159 3160 3162 3163 3164 3167 3168 3168 3169 3170 3171
3133 3132 3131 3129 3128 3127 3126 3125 3124 3122 3121 3120 3119 3119 3118 3118 3118 3117 3117 3117 3116 3116 3116 3116 3116 3116 3116 3116 3115 3114 3114 3114 3114 3114 3114 3115 3116 3117 3117 3118 3120 3121 3123 3125 3125 3127 3129 3131 3133 3134 3136 3138 3139 3140 3141 3142 3141 3142 3142 3140 3141 3141 3141 3142 3142 3142 3144 3146 3148 3149 3151 3152 3153 3153 3154 3155 3156 3158 3159 3161 3163 3164 3166 3167 3168 3169 3170 3171
3131 3130 3129 3128 3127 3126 3125 3124 3123 3121 3120 3119 3119 3118 3117 3117 3117 3116 3116 3116 3116 3116 3116 3116 3116 3115 3115 3115 3115 3115 3114 3114 3114 3113 3113 3114 3114 3115 3116 3117 3119 3120 3122 3124 3125 3126 3128 3129 3131 3133 3134 3135 3137 3139 3140 3139 3138 3138 3139 3139 3139 3139 3139 3139 3139 3139 3141 3144 3147 3149 3150 3151 3152 3153 3153 3154 3155 3157 3158 3160 3162 3164 3164 3166 3168 3169 3170 3171
3130 3129 3128 3127 3126 3124 3123 3122 3121 3120 3119 3118 3117 3117 3116 3116 3116 3115 3115 3115 3115 3115 3115 3116 3115 3115 3115 3115 3116 3116 3114 3113 3113 3112 3113 3113 3113 3114 3115 3117 3118 3119 3121 3122 3123 3125 3127 3128 3130 3132 3132 3133 3135 3137 3136 3134 3135 3136 3136 3137 3137 3137 3137 3137 3137 3137 3139 3142 3145 3147 3149 3150 3152 3153 3152 3153 3154 3156 3158 3159 3162 3163 3163 3165 3168 3169 3170 3170
3129 3127 3126 3125 3124 3123 3122 3121 3120 3119 3118 3117 3116 3116 3115 3115 3115 3114 3114 3114 3115 3115 3116 3116 3115 3116 3117 3115 3114 3114 3113 3113 3112 3112 3112 3112 3113 3113 3114 3116 3117 3119 3121 3122 3123 3124 3126 3128 3129 3129 3130 3130 3131 3132 3132 3132 3134 3135 3135 3135 3135 3135 3135 3135 3136 3135 3136 3139 3142 3145 3147 3149 3151 3153 3152 3153 3154 3156 3157 3158 3160 3162 3161 3162 3165 3169 3170 3170
3128 3126 3125 3124 3123 3122 3121 3120 3118 3117 3116 3116 3115 3114 3114 3114 3114 3113 3113 3113 3113 3114 3115 3115 3114 3115 3116 3115 3113 3113 3113 3112 3113 3113 3112 3111 3112 3113 3114 3115 3118 3119 3120 3122 3123 3124 3126 3127 3126 3125 3127 3128 3130 3131 3132 3133 3135 3134 3134 3133 3132 3132 3133 3133 3134 3134 3134 3136 3139 3141 3144 3148 3150 3152 3152 3152 3153 3155 3155 3157 3159 3160 3160 3161 3164 3166 3168 3170
3127 3125 3124 3122 3121 3121 3120 3118 3117 3116 3115 3115 3114 3114 3113 3113 3113 3112 3111 3112 3112 3113 3114 3114 3113 3114 3114 3113 3112 3113 3113 3113 3114 3113 3112 3112 3112 3113 3114 3115 3118 3119 3119 3122 3123 3124 3124 3123 3123 3124 3126 3128 3130 3131 3132 3133 3134 3134 3133 3132 3130 3130 3130 3132 3132 3132 3133 3134 3137 3139 3142 3146 3149 3151 3152 3151 3152 3153 3154 3156 3157 3158 3160 3162 3165 3165 3166 3169
3126 3124 3123 3121 3120 3120 3119 3117 3116 3115 3114 3113 3113 3113 3113 3112 3112 3112 3111 3111 3111 3111 3112 3112 3112 3113 3112 3111 3112 3113 3114 3115 3114 3112 3112 3112 3113 3114 3115 3116 3118 3119 3119 3121 3122 3123 3122 3120 3122 3125 3126 3128 3129 3130 3131 3131 3133 3133 3132 3131 3130 3128 3129 3130 3131 3130 3130 3132 3135 3138 3141 3145 3147 3149 3150 3151 3151 3152 3154 3156 3156 3157 3159 3161 3164 3165 3165 3168
3125 3123 3122 3120 3119 3118 3117 3116 3115 3114 3113 3112 3112 3112 3111 3111 3111 3110 3110 3110 3110 3110 3110 3111 3112 3113 3112 3111 3111 3112 3113 3115 3116 3114 3111 3112 3114 3115 3116 3116 3118 3119 3119 3120 3121 3121 3119 3119 3122 3124 3126 3127 3127 3129 3130 3130 3131 3131 3131 3130 3129 3129 3127 3127 3128 3129 3128 3129 3132 3135 3138 3140 3143 3146 3148 3150 3151 3152 3153 3155 3155 3156 3158 3160 3163 3164 3165 3167
3124 3122 3121 3119 3118 3116 3115 3115 3113 3112 3112 3111 3110 3110 3110 3110 3109 3109 3109 3109 3109 3109 3110 3110 3111 3111 3111 3110 3110 3111 3112 3114 3115 3114 3111 3112 3114 3115 3116 3117 3117 3118 3118 3119 3119 3119 3118 3119 3121 3122 3124 3125 3126 3127 3128 3129 3128 3129 3129 3129 3129 3129 3127 3125 3125 3127 3127 3127 3129 3133 3135 3135 3137 3141 3145 3147 3149 3151 3153 3153 3153 3155 3157 3158 3160 3162 3164 3166
3123 3121 3119 3118 3117 3115 3114 3113 3112 3111 3110 3110 3110 3109 3109 3109 3108 3108 3108 3108 3108 3108 3108 3109 3109 3109 3109 3109 3110 3111 3112 3112 3113 3113 3111 3112 3113 3114 3115 3116 3116 3117 3117 3118 3118 3117 3117 3119 3120 3121 3122 3123 3124 3125 3126 3127 3127 3126 3126 3127 3128 3128 3128 3127 3125 3125 3126 3124 3125 3129 3132 3132 3134 3137 3141 3145 3146 3147 3150 3151 3151 3152 3154 3155 3157 3159 3162 3165
3122 3120 3118 3117 3116 3115 3113 3112 3111 3111 3110 3110 3109 3108 3108 3108 3107 3107 3107 3107 3107 3107 3107 3108 3109 3109 3108 3109 3109 3110 3112 3112 3112 3112 3110 3110 3111 3112 3113 3114 3115 3115 3116 3117 3117 3116 3115 3118 3119 3119 3120 3121 3122 3122 3124 3125 3125 3124 3124 3126 3128 3128 3128 3127 3126 3125 3123 3121 3122 3125 3126 3128 3131 3133 3136 3140 3142 3145 3148 3149 3149 3150 3151 3154 3157 3159 3161 3163
3120 3118 3116 3115 3114 3113 3112 3111 3110 3110 3110 3109 3108 3108 3107 3107 3107 3107 3107 3106 3105 3106 3108 3108 3108 3108 3108 3109 3109 3110 3111 3111 3110 3110 3110 3110 3110 3110 3111 3113 3114 3114 3115 3116 3114 3113 3114 3116 3117 3118 3119 3119 3119 3120 3122 3124 3124 3122 3124 3125 3126 3127 3127 3127 3127 3125 3123 3122 3121 3121 3122 3124 3127 3129 3131 3133 3137 3142 3146 3147 3148 3148 3149 3152 3155 3156 3158 3161
3118 3116 3115 3114 3112 3111 3111 3110 3109 3108 3108 3107 3107 3107 3106 3107 3106 3106 3108 3105 3102 3105 3107 3106 3107 3107 3108 3108 3108 3110 3111 3110 3111 3110 3110 3110 3109 3110 3111 3112 3113 3113 3114 3115 3112 3111 3113 3114 3114 3116 3117 3116 3117 3118 3120 3123 3122 3122 3124 3125 3124 3125 3125 3126 3127 3125 3125 3123 3119 3119 3121 3120 3122 3127 3129 3129 3132 3137 3141 3143 3145 3146 3147 3149 3151 3153 3155 3158
3117 3115 3114 3113 3112 3111 3110 3109 3108 3107 3107 3106 3106 3106 3106 3106 3106 3107 3108 3105 3102 3105 3106 3106 3107 3107 3107 3108 3108 3109 3110 3111 3111 3110 3109 3110 3109 3110 3111 3112 3112 3112 3112 3112 3111 3110 3111 3112 3114 3115 3115 3115 3115 3117 3119 3121 3120 3122 3124 3124 3124 3124 3124 3126 3126 3125 3126 3123 3118 3118 3119 3117 3118 3121 3125 3128 3129 3132 3135 3139 3141 3141 3143 3146 3148 3150 3152 3156
3117 3115 3114 3112 3111 3110 3108 3107 3107 3106 3106 3106 3106 3106 3106 3106 3107 3107 3107 3104 3103 3104 3106 3107 3107 3107 3107 3108 3109 3109 3109 3110 3110 3109 3110 3110 3110 3109 3110 3110 3111 3111 3111 3111 3110 3109 3108 3109 3112 3113 3112 3113 3115 3116 3117 3119 3120 3122 3123 3123 3123 3123 3124 3125 3124 3126 3125 3119 3117 3119 3118 3118 3117 3116 3120 3123 3125 3128 3131 3135 3137 3137 3138 3141 3144 3147 3150 3153
3115 3114 3112 3110 3109 3108 3106 3106 3105 3105 3105 3105 3105 3106 3106 3106 3107 3107 3103 3102 3103 3104 3106 3107 3107 3107 3108 3109 3108 3108 3109 3110 3110 3110 3110 3110 3110 3109 3109 3110 3110 3110 3110 3110 3109 3109 3108 3106 3107 3110 3110 3112 3114 3115 3116 3117 3119 3120 3121 3122 3122 3121 3123 3124 3124 3125 3121 3115 3117 3120 3120 3120 3116 3114 3117 3119 3122 3126 3128 3130 3132 3134 3135 3137 3140 3143 3147 3151
3114 3112 3110 3109 3107 3106 3105 3105 3105 3105 3105 3105 3105 3105 3106 3107 3107 3105 3101 3100 3103 3105 3106 3106 3106 3108 3108 3108 3109 3108 3109 3109 3109 3110 3110 3110 3110 3109 3110 3110 3110 3110 3108 3107 3107 3107 3107 3106 3106 3108 3109 3110 3112 3113 3114 3115 3117 3119 3119 3120 3120 3119 3120 3122 3122 3121 3117 3115 3118 3121 3121 3118 3114 3115 3116 3116 3120 3125 3126 3128 3129 3130 3132 3134 3138 3141 3144 3149
3113 3111 3109 3108 3107 3105 3105 3104 3104 3104 3104 3105 3105 3105 3107 3108 3105 3102 3101 3101 3103 3104 3106 3107 3107 3108 3108 3108 3109 3109 3109 3109 3109 3110 3110 3110 3110 3109 3110 3110 3110 3110 3108 3107 3106 3104 3103 3104 3106 3107 3107 3108 3109 3110 3111 3112 3113 3115 3116 3117 3117 3116 3117 3119 3118 3117 3115 3114 3116 3119 3119 3114 3113 3116 3116 3114 3119 3122 3124 3126 3128 3129 3129 3130 3135 3139 3142 3146
3112 3111 3108 3107 3105 3104 3104 3103 3103 3103 3104 3104 3105 3105 3108 3107 3103 3102 3103 3104 3105 3106 3106 3107 3107 3108 3108 3108 3108 3109 3110 3109 3109 3110 3110 3110 3110 3109 3109 3109 3109 3111 3111 3109 3107 3104 3101 3099 3101 3104 3105 3106 3107 3108 3109 3110 3111 3112 3114 3115 3115 3114 3114 3114 3113 3113 3112 3111 3113 3115 3113 3109 3110 3113 3114 3115 3117 3120 3121 3123 3126 3128 3128 3129 3133 3137 3140 3142
3111 3109 3107 3105 3104 3103 3102 3103 3103 3103 3104 3104 3105 3107 3108 3106 3104 3104 3104 3106 3107 3107 3107 3107 3107 3108 3107 3108 3109 3109 3110 3109 3109 3110 3110 3110 3110 3109 3109 3108 3109 3111 3111 3110 3108 3106 3102 3098 3098 3101 3102 3104 3105 3107 3109 3110 3108 3109 3112 3113 3112 3112 3114 3112 3108 3108 3108 3107 3107 3107 3106 3106 3109 3110 3113 3115 3116 3117 3120 3121 3123 3124 3124 3126 3130 3134 3137 3140
3109 3107 3105 3104 3103 3102 3102 3102 3103 3104 3104 3105 3106 3108 3107 3106 3106 3106 3106 3107 3107 3107 3108 3107 3107 3107 3105 3106 3107 3108 3108 3109 3109 3110 3110 3109 3109 3109 3109 3109 3110 3111 3111 3111 3109 3108 3105 3099 3097 3099 3099 3100 3103 3105 3108 3108 3106 3107 3109 3109 3110 3113 3114 3112 3109 3107 3106 3103 3101 3101 3101 3103 3107 3107 3109 3112 3114 3116 3118 3119 3121 3122 3120 3120 3124 3128 3133 3136
3107 3105 3104 3103 3103 3102 3102 3103 3103 3104 3105 3106 3107 3108 3108 3107 3107 3107 3107 3107 3108 3108 3108 3107 3106 3106 3105 3105 3106 3106 3107 3108 3109 3110 3109 3108 3109 3110 3111 3110 3110 3111 3111 3111 3111 3110 3109 3101 3096 3099 3100 3099 3101 3103 3105 3106 3105 3104 3105 3107 3111 3113 3112 3111 3109 3107 3106 3102 3099 3098 3097 3099 3102 3103 3105 3109 3110 3113 3116 3117 3118 3120 3120 3117 3119 3124 3129 3133
3105 3103 3102 3103 3103 3103 3103 3103 3104 3105 3106 3107 3108 3108 3108 3107 3107 3107 3107 3107 3108 3109 3109 3108 3107 3107 3107 3106 3106 3107 3108 3108 3109 3110 3108 3108 3109 3109 3110 3110 3110 3111 3110 3111 3112 3111 3111 3105 3098 3100 3102 3100 3101 3101 3101 3103 3105 3103 3103 3106 3108 3108 3108 3109 3109 3107 3105 3103 3099 3097 3096 3095 3096 3098 3102 3105 3107 3109 3113 3115 3116 3119 3120 3117 3118 3123 3127 3131
3104 3103 3102 3103 3104 3104 3104 3104 3105 3106 3107 3109 3108 3108 3109 3108 3107 3107 3107 3107 3109 3109 3109 3109 3108 3109 3109 3108 3107 3108 3110 3109 3109 3111 3109 3108 3109 3109 3110 3110 3110 3111 3110 3110 3112 3112 3113 3111 3101 3098 3101 3101 3099 3098 3096 3099 3104 3104 3103 3104 3105 3104 3104 3105 3106 3106 3105 3102 3099 3097 3094 3093 3094 3096 3098 3101 3104 3107 3110 3113 3115 3118 3121 3119 3118 3122 3126 3129
3104 3104 3104 3105 3105 3105 3105 3106 3105 3106 3108 3109 3109 3109 3109 3109 3107 3107 3106 3107 3109 3109 3109 3109 3109 3109 3109 3109 3109 3109 3110 3110 3110 3112 3111 3110 3110 3110 3110 3108 3108 3110 3110 3110 3112 3112 3113 3113 3106 3099 3100 3101 3098 3096 3096 3098 3101 3103 3102 3101 3102 3103 3103 3102 3101 3102 3104 3102 3099 3097 3093 3092 3094 3095 3095 3097 3101 3105 3108 3111 3113 3116 3120 3120 3119 3121 3124 3127
3105 3106 3106 3106 3106 3106 3106 3106 3106 3107 3108 3108 3109 3109 3108 3108 3109 3109 3108 3108 3109 3109 3109 3109 3110 3110 3110 3109 3110 3110 3111 3111 3111 3112 3112 3112 3111 3110 3108 3107 3107 3109 3110 3110 3113 3113 3112 3112 3108 3102 3101 3101 3099 3097 3098 3098 3099 3101 3102 3100 3101 3102 3102 3101 3098 3098 3101 3101 3100 3098 3093 3090 3092 3093 3094 3097 3100 3103 3106 3110 3112 3115 3118 3120 3121 3122 3123 3125
3107 3108 3106 3105 3106 3106 3106 3106 3108 3109 3109 3108 3109 3108 3108 3109 3110 3110 3109 3109 3110 3110 3109 3110 3110 3110 3110 3111 3111 3111 3112 3112 3112 3112 3112 3112 3111 3109 3108 3108 3107 3109 3111 3112 3114 3112 3110 3110 3108 3104 3101 3100 3098 3096 3095 3096 3095 3095 3097 3098 3099 3100 3100 3099 3097 3096 3098 3098 3099 3100 3096 3091 3091 3091 3092 3095 3098 3101 3105 3108 3111 3113 3116 3118 3120 3122 3122 3123
3108 3109 3106 3105 3106 3106 3106 3108 3110 3110 3110 3109 3109 3108 3109 3110 3110 3110 3110 3110 3110 3110 3110 3110 3110 3110 3111 3111 3111 3112 3112 3112 3112 3112 3112 3112 3111 3109 3109 3108 3107 3109 3111 3112 3112 3110 3109 3110 3108 3105 3102 3099 3097 3096 3095 3096 3097 3095 3093 3094 3095 3096 3097 3098 3098 3098 3095 3094 3097 3100 3097 3093 3092 3091 3091 3094 3097 3100 3103 3107 3110 3112 3114 3116 3118 3120 3122 3122
3108 3109 3109 3108 3107 3107 3108 3110 3111 3111 3110 3110 3110 3110 3110 3110 3111 3111 3111 3110 3110 3110 3110 3111 3111 3110 3110 3111 3111 3112 3112 3111 3111 3111 3111 3111 3110 3108 3108 3108 3107 3109 3111 3111 3111 3109 3109 3110 3109 3106 3103 3100 3099 3098 3096 3096 3098 3097 3094 3094 3094 3095 3096 3096 3098 3098 3094 3092 3093 3096 3096 3094 3095 3094 3093 3096 3098 3100 3103 3106 3109 3110 3112 3115 3116 3118 3121 3121
3107 3109 3110 3110 3109 3109 3110 3110 3111 3112 3112 3111 3111 3112 3111 3110 3109 3109 3110 3110 3110 3109 3110 3110 3110 3110 3110 3110 3111 3111 3111 3111 3110 3110 3110 3110 3108 3107 3107 3107 3107 3109 3110 3110 3109 3110 3109 3110 3109 3106 3103 3100 3097 3097 3097 3097 3097 3095 3093 3092 3093 3095 3095 3095 3096 3096 3094 3092 3092 3092 3093 3095 3097 3097 3097 3098 3099 3100 3103 3105 3107 3109 3110 3113 3115 3117 3119 3119
3108 3110 3112 3112 3112 3112 3112 3111 3112 3112 3112 3112 3112 3113 3112 3111 3109 3108 3109 3110 3110 3109 3110 3110 3110 3110 3110 3110 3110 3111 3110 3110 3110 3110 3110 3109 3109 3108 3107 3107 3107 3108 3109 3108 3107 3108 3109 3108 3108 3106 3103 3099 3095 3095 3097 3098 3098 3096 3093 3091 3092 3093 3093 3093 3095 3094 3094 3094 3091 3090 3093 3095 3097 3099 3099 3100 3101 3101 3104 3105 3106 3108 3110 3111 3113 3114 3114 3116
3110 3111 3112 3111 3112 3113 3113 3113 3113 3112 3111 3112 3112 3112 3113 3113 3111 3109 3109 3110 3110 3110 3110 3110 3110 3110 3109 3109 3110 3110 3109 3110 3110 3110 3110 3109 3109 3108 3108 3107 3107 3107 3107 3107 3107 3107 3107 3106 3106 3105 3103 3100 3096 3095 3098 3099 3098 3097 3094 3092 3093 3093 3092 3092 3093 3092 3093 3094 3091 3090 3093 3094 3096 3099 3099 3100 3101 3103 3106 3107 3107 3108 3109 3111 3111 3111 3112 3115
3111 3112 3112 3112 3113 3113 3113 3112 3112 3112 3111 3111 3112 3112 3113 3113 3111 3110 3110 3110 3111 3111 3110 3110 3110 3110 3110 3109 3109 3109 3109 3109 3109 3108 3108 3107 3107 3106 3106 3106 3107 3106 3105 3105 3106 3107 3106 3105 3104 3103 3102 3100 3098 3096 3098 3099 3098 3096 3094 3092 3093 3093 3093 3093 3093 3091 3093 3094 3091 3091 3093 3094 3096 3098 3098 3098 3099 3101 3104 3107 3107 3107 3108 3110 3111 3112 3114 3115
3112 3112 3112 3113 3114 3114 3114 3113 3114 3113 3112 3112 3112 3112 3112 3112 3112 3112 3112 3111 3112 3111 3110 3110 3110 3110 3109 3109 3108 3108 3108 3108 3108 3107 3106 3106 3106 3105 3105 3105 3105 3105 3104 3104 3105 3106 3105 3103 3102 3102 3100 3098 3098 3097 3096 3097 3097 3095 3093 3092 3092 3092 3093 3093 3092 3091 3092 3092 3090 3090 3091 3093 3095 3097 3097 3097 3096 3097 3101 3103 3102 3101 3103 3107 3109 3112 3113 3113
3112 3111 3111 3112 3114 3115 3115 3115 3115 3114 3113 3113 3113 3112 3112 3113 3113 3112 3112 3112 3112 3111 3110 3110 3110 3109 3109 3108 3107 3107 3107 3106 3106 3105 3105 3105 3105 3105 3104 3103 3103 3103 3103 3102 3102 3103 3103 3101 3101 3101 3098 3096 3096 3096 3095 3095 3095 3093 3092 3090 3090 3091 3092 3092 3091 3091 3091 3090 3089 3090 3090 3092 3094 3095 3096 3097 3096 3097 3100 3100 3099 3099 3100 3103 3106 3108 3109 3110
3112 3112 3111 3111 3112 3114 3114 3115 3115 3115 3114 3113 3112 3112 3112 3113 3112 3111 3110 3111 3111 3110 3110 3110 3109 3108 3107 3107 3106 3105 3105 3105 3104 3104 3104 3104 3104 3104 3102 3101 3102 3102 3102 3102 3101 3101 3102 3101 3100 3101 3098 3094 3094 3094 3093 3093 3093 3091 3090 3089 3089 3089 3090 3091 3091 3090 3091 3090 3090 3089 3088 3090 3093 3096 3098 3098 3097 3098 3098 3098 3098 3099 3100 3101 3103 3106 3108 3109
3113 3113 3112 3111 3112 3114 3115 3116 3116 3115 3113 3111 3111 3112 3112 3112 3111 3110 3110 3110 3110 3109 3110 3110 3109 3108 3106 3106 3105 3104 3104 3103 3103 3103 3103 3102 3102 3102 3101 3101 3101 3101 3101 3101 3100 3100 3100 3099 3099 3100 3097 3094 3093 3092 3091 3091 3089 3086 3086 3087 3088 3088 3088 3089 3089 3088 3089 3089 3088 3088 3088 3090 3094 3096 3096 3096 3095 3095 3096 3098 3099 3099 3100 3101 3103 3105 3106 3107